SCP
0 0 0 0 0 0 0 0 0 -0 -0 -0 -0 -0 -0 -0 -0 -0 -0 -0 -0 -0 -0 -0 -0 -0 0 0 0 0 0 0 0 0 0 0 0 0 0 0 0 0 0 0 0 0 0
0 0 -0 -0 0 0 0 0 0 -0 -0 -0 -0 -0 -0 -0 -0 -0 -0 -0 -0 -0 -0 -0 -0 0 0 0 0 0 0 0 0 0 0 0 0 0 0 0 0 0 0 0 0 0 0
0 0 -0 -0 -0 -0 -0 -0 -0 -0 -0 -0 -0 -0 -0 -0 -0 -0 -0 -0 -0 -0 -0 -0 0 0 0 -0 0 0 -0 0 0 0 0 0 0 0 0 0 0 0 0 0 0 0 0
0 0 0 -0 -0 -0 -0 -0 -0 -0 -0 -0 -0 -0 -0 -0 -0 -0 -0 -0 -0 -0 -0 -0 0 0 -0 0 0 0 0 0 0 -0 0 0 0 0 0 0 0 0 0 0 0 0 0
-0 -0 0 0 -0 -0 -0 -0 -0 -0 -0 -0 -0 -0 -0 -0 -0 -0 -0 -0 -0 -0 -0 0 0 0 -0 -0 0 0 0 0 -0 0 0 0 0 0 0 0 0 0 0 0 0 0 0
0 -0 0 0 -0 -0 -0 -0 -0 -0 -0 -0 -0 -0 -0 -0 -0 -0 -0 -0 -0 0 0 -0 0 0 0 0 0 0 -0 0 0 0 0 0 0 0 0 0 0 0 0 0 0 0 0
0 0 -0 0 -0 -0 -0 -0 -0 -0 -0 -0 -0 -0 -0 -0 -0 0 -0 0 0 0 0 0 0 0 0 0 0 0 0 0 0 0 0 -0 0 0 0 0 0 0 0 0 -0 0 0
0 0 0 0 -0 -0 -0 -0 -0 -0 -0 -0 -0 -0 -0 -0 -0 -0 0 0 0 0 0 -0 -0 -0 -0 0 0 0 0 0 0 0 0 0 0 0 0 0 0 0 0 0 0 0 0
0 0 0 0 0 0 -0 -0 -0 -0 -0 -0 -0 -0 -0 -0 -0 0 0 0 0 0 0 0 -0 -0 -0 0 0 -0 0 0 0 0 0 0 0 0 0 0 0 0 0 0 0 0 0
0 0 0 0 0 0 0 -0 -0 -0 -0 -0 -0 -0 -0 -0 0 0 0 0 0 0 0 0 0 0 0 0 0 0 -0 0 0 0 0 0 0 0 0 0 0 0 0 0 0 0 0
0 0 0 0 -0 0 0 0 0 -0 -0 -0 -0 -0 -0 -0 0 0 0 0 0 0 0 0 0 0 0 0 0 0 0 0 0 0 0 0 0 0 0 0 -0 0 0 0 0 0 0
0 0 0 0 -0 0 0 0 0 0 -0 -0 -0 -0 0 0 0 0 0 -0 0 0 0 0 0 0 0 0 0 0 0 0 0 0 0 0 0 0 0 0 0 0 0 0 0 0 0
0 0 0 0 0 0 0 0 0 0 0 -0 -0 -0 -0 0 0 0 0 0 0 0 0 0 0 0 0 0 0 0 0 0 0 0 0 0 0 0 0 0 0 0 0 0 0 0 0
0 0 0 0 0 0 0 0 -0 0 -0 -0 -0 -0 0 0 0 0 0 0 0 0 0 0 0 0 0 0 0 0 -0 0 0 0 0 0 0 0 -0 0 0 0 0 0 0 0 0
0 0 0 0 0 0 0 0 0 0 0 -0 0 0 0 0 -0 -0 0 0 0 0 0 0 0 0 0 0 0 0 0 0 0 0 0 0 0 0 0 0 0 0 0 0 0 0 0
0 0 0 0 0 0 0 0 0 0 0 -0 0 0 0 0 0 0 0 0 0 -0 -0 0 0 0 0 0 0 0 0 0 0 0 0 0 0 0 0 0 0 0 0 0 0 0 0
0 0 0 0 0 0 0 0 0 0 0 0 0 0 0 0 0 0 0 0 0 0 0 0 0 0 0 0 0 0 0 -0 0 0 0 0 0 0 0 0 0 0 0 0 0 0 0
0 0 0 0 0 0 0 0 0 -0 -0 -0 0 0 0 0 0 0 0 0 0 0 0 0 0 0 0 0 0 0 0 0 0 0 0 0 0 0 0 0 0 0 0 0 0 0 0
0 0 0 0 0 0 0 0 0 -0 -0 -0 0 0 0 0 0 0 0 0 0 0 0 0 0 0 0 0 0 0 0 0 0 0 0 0 0 0 0 0 0 0 0 0 0 0 0
0 0 0 0 0 0 0 0 0 0 -0 -0 0 0 0 0 0 0 0 0 0 0 0 0 0 0 0 0 0 0 0 0 0 0 0 0 0 0 0 0 0 0 0 0 0 0 0
0 0 0 0 0 0 0 0 0 0 0 0 0 0 0 0 0 0 0 0 0 0 0 0 0 0 0 0 0 0 0 0 0 0 0 0 0 0 0 0 0 0 0 0 -0 0 0
0 0 0 0 0 0 0 0 0 0 0 0 0 0 0 0 0 0 0 0 0 0 0 0 0 0 0 0 0 0 0 0 0 0 0 0 0 0 0 0 0 0 -0 0 0 0 -0
0 0 0 0 0 0 0 0 0 0 0 0 0 0 0 0 0 0 0 0 0 0 0 0 0 0 0 0 0 0 0 0 0 0 0 0 0 0 0 0 0 0 0 0 0 0 0
0 0 0 0 0 0 0 0 0 0 0 0 0 0 0 0 0 0 0 0 0 0 0 0 0 0 0 0 0 0 0 0 0 0 0 0 0 0 0 0 0 0 -0 0 0 0 0
0 0 0 0 0 0 0 0 0 0 0 0 0 0 0 0 0 0 0 0 0 0 0 0 0 0 0 0 0 0 0 0 0 0 0 0 0 0 0 0 0 0 0 -0 -0 0 0
0 0 0 0 0 0 0 0 0 0 0 0 0 0 0 0 0 0 0 0 0 0 0 0 0 0 0 0 0 0 0 0 0 0 0 0 0 0 0 0 0 0 0 0 0 0 0
0 0 0 0 0 0 0 0 0 0 0 0 0 0 0 0 0 0 0 0 0 0 0 0 0 0 0 0 0 0 0 0 0 0 0 0 0 0 0 0 0 0 0 0 0 0 0
0 0 0 0 0 0 0 0 0 0 0 0 0 0 0 0 0 0 0 0 0 0 0 0 0 0 0 0 0 0 0 0 0 0 0 0 0 0 0 0 0 -0 0 -0 0 0 0
0 0 0 0 0 0 0 0 0 0 0 0 0 0 0 0 0 0 0 0 0 0 0 0 0 0 0 0 0 0 0 0 0 0 0 0 0 0 0 0 0 0 0 0 0 0 0
Wind_Speed_500mb
55 52 49 52 51 50 52 52 52 50 46 39 34 29 26 24 23 17 14 12 12 11 11 13 16 18 15 10 22 17 7 3 4 2 7 18 31 33 15 17 38 20 24 56 63 61 60
56 57 54 50 51 53 52 53 55 53 49 42 35 27 24 24 20 16 14 12 9 8 8 11 13 15 15 13 9 7 15 9 3 7 19 21 20 34 10 17 13 26 34 30 40 42 42
56 56 59 55 54 54 54 55 55 55 52 44 35 29 23 19 19 16 12 11 11 9 7 8 10 14 20 38 14 7 8 6 10 19 18 18 25 15 32 19 28 49 19 20 24 30 20
55 57 58 60 58 57 56 57 58 60 54 47 37 27 21 17 13 13 11 14 12 8 6 7 9 12 20 6 20 25 14 16 16 15 17 22 21 22 25 32 36 16 15 13 13 17 37
54 56 59 62 63 61 59 58 60 62 56 48 40 31 21 13 7 10 10 9 11 7 6 9 10 12 18 12 22 23 25 25 25 25 15 17 15 19 30 12 12 12 15 22 31 31 31
52 54 57 59 63 65 63 62 62 63 60 50 42 31 22 14 6 10 11 12 16 12 11 14 14 17 19 19 26 24 27 23 19 13 21 27 23 10 8 6 11 17 14 20 20 13 21
50 53 55 58 60 63 65 66 64 63 62 55 44 33 20 11 8 12 13 13 17 3 21 21 20 19 28 6 4 14 17 20 18 20 12 32 7 14 25 24 26 21 27 20 16 26 24
48 51 53 56 58 59 62 64 67 64 60 56 47 35 21 8 8 8 17 16 24 24 33 38 54 49 46 31 12 26 22 21 22 15 20 11 18 29 32 32 21 21 25 16 20 25 27
43 47 52 54 56 59 60 61 63 65 62 55 46 35 20 7 8 10 19 12 26 36 13 41 49 57 51 29 29 35 37 37 19 17 19 18 22 27 27 22 17 14 18 13 19 29 23
42 45 47 53 54 56 59 61 61 63 62 56 46 33 19 10 15 22 33 22 27 30 6 13 14 18 31 30 16 40 37 32 17 24 22 20 21 26 26 21 9 12 20 25 27 13 7
42 44 48 49 55 56 58 61 63 61 62 58 49 32 19 13 19 15 23 30 28 5 7 14 16 19 19 27 12 30 35 32 16 19 16 21 23 29 31 29 24 17 18 20 10 12 16
42 44 44 49 51 56 59 61 63 64 64 61 52 38 23 17 22 16 38 30 18 2 11 13 19 19 13 33 32 31 28 32 29 12 20 25 46 22 30 35 34 33 18 17 7 4 23
43 42 44 45 49 48 57 61 64 63 65 66 57 47 33 29 24 10 32 20 3 7 14 15 3 13 15 13 22 29 29 20 15 13 20 31 32 28 37 43 40 31 15 13 12 9 31
44 44 46 45 53 48 50 59 64 65 65 70 63 49 26 25 18 8 18 5 7 18 24 11 23 27 19 25 26 25 21 16 14 13 17 12 20 16 25 32 3 16 10 8 14 10 20
44 46 45 48 45 53 51 56 63 65 68 74 66 41 12 8 19 5 8 4 9 10 29 26 18 19 16 33 25 22 15 5 10 16 9 7 18 28 32 33 20 11 18 11 6 10 9
43 47 47 48 45 48 48 56 66 70 67 75 72 36 18 4 13 10 3 10 10 22 33 24 18 15 26 25 28 27 17 15 21 23 25 18 28 17 29 31 18 8 6 9 7 7 13
35 46 47 48 48 45 47 45 66 72 77 78 57 25 14 14 16 8 6 12 20 43 31 18 18 19 24 22 24 19 20 31 24 25 16 25 16 17 12 8 14 16 3 8 7 8 10
31 35 40 44 48 47 47 45 59 71 82 75 40 8 14 22 3 11 9 11 29 32 38 16 16 14 15 21 19 18 27 20 35 27 25 15 2 5 15 22 21 9 11 8 2 3 5
36 38 42 39 43 44 46 45 55 63 75 78 54 20 17 23 5 7 14 25 35 23 26 28 16 8 13 14 14 13 26 35 40 25 12 1 4 7 15 11 10 4 5 12 12 11 10
43 39 37 36 39 41 48 45 52 60 61 48 21 8 5 22 30 13 15 12 22 31 35 36 15 19 17 18 17 20 23 17 34 32 21 8 3 8 15 18 13 21 26 19 16 6 15
50 48 50 49 44 42 44 42 50 51 51 38 8 12 26 9 13 24 21 18 28 28 36 24 14 22 26 15 20 24 24 22 31 34 18 5 3 11 23 27 32 38 34 29 31 28 26
52 49 46 44 42 38 40 44 50 48 46 26 10 14 30 36 30 25 19 23 31 31 24 26 13 24 23 18 21 24 16 11 10 10 14 10 8 14 27 24 27 35 33 36 39 30 32
46 46 47 45 42 43 42 41 48 53 48 14 23 38 22 17 19 20 18 26 36 34 20 44 36 27 25 16 25 31 35 33 20 12 9 14 6 8 12 16 28 21 22 14 26 20 10
41 42 44 45 40 39 42 42 47 52 43 22 22 25 8 9 9 16 39 42 31 31 23 42 43 24 14 31 42 47 47 42 30 25 25 12 8 5 11 10 6 13 25 12 15 5 22
41 37 39 43 46 44 47 46 45 44 29 22 20 16 8 7 13 24 28 32 37 35 22 40 33 10 28 21 8 12 8 6 13 17 23 20 9 2 3 5 17 22 9 11 5 6 26
33 33 35 38 42 48 47 45 39 35 20 28 24 25 17 11 10 17 34 33 10 15 17 21 42 22 10 1 5 5 7 13 3 4 12 4 10 7 1 5 8 9 26 40 3 8 34
37 32 30 33 33 36 41 43 35 32 20 26 29 28 20 13 39 17 5 13 15 12 8 36 31 13 4 4 7 7 6 10 5 3 6 3 4 6 6 8 12 22 27 38 6 11 41
39 33 31 31 29 27 30 36 37 33 21 22 34 30 20 14 48 56 41 14 17 14 6 30 20 12 7 4 4 6 5 8 9 13 7 13 10 7 5 9 5 25 7 10 13 32 40
43 37 35 34 29 26 28 29 33 32 22 21 36 32 22 33 31 32 45 69 68 37 41 15 19 26 10 5 7 7 6 6 9 5 13 7 3 5 4 8 12 35 7 28 36 39 47
Wind_Direction_500mb
16 15 14 9 11 9 5 2 359 354 349 343 339 334 326 323 322 322 321 321 314 300 277 269 272 290 313 295 260 250 233 270 220 248 317 286 271 235 224 235 252 258 257 253 259 253 259
17 16 13 11 9 6 7 5 1 358 353 346 338 334 329 324 323 327 331 330 317 300 279 264 262 281 291 261 230 238 289 228 119 303 306 295 296 317 303 296 286 280 277 274 280 277 269
15 15 14 12 9 8 5 3 4 2 356 350 342 336 332 328 326 329 335 338 329 319 299 262 257 279 272 242 220 225 354 278 297 272 289 285 333 345 319 319 309 323 320 308 287 286 284
12 11 12 14 11 9 6 5 4 2 2 357 350 338 333 328 330 333 335 342 331 314 291 263 262 278 262 166 203 231 250 245 255 260 271 294 318 312 300 293 299 304 306 293 275 275 266
8 10 10 10 12 9 8 6 5 4 3 2 357 347 337 332 328 336 322 321 343 335 306 274 268 257 264 296 211 221 227 247 255 236 247 271 282 288 285 296 306 269 251 255 273 242 239
3 5 7 9 9 9 7 6 5 5 4 2 359 354 343 332 320 340 327 300 306 285 299 275 224 282 264 251 217 229 219 239 268 293 285 255 234 224 270 202 242 259 262 262 255 287 332
358 360 2 5 6 8 8 7 5 4 4 1 357 355 349 336 331 343 348 327 341 307 222 221 203 240 293 182 167 217 226 231 230 247 257 274 212 230 238 233 234 255 268 282 319 325 326
352 354 357 360 1 3 5 7 5 3 3 0 356 353 348 346 334 331 338 331 352 310 295 271 262 253 259 270 268 228 219 238 234 231 256 265 242 247 243 252 257 280 294 304 316 309 296
348 350 351 354 357 358 360 2 4 3 0 359 354 353 347 333 317 314 305 318 350 328 292 293 239 234 235 237 244 258 211 221 224 258 263 246 268 291 283 278 272 274 298 272 258 271 276
341 344 347 348 351 354 355 356 359 360 360 356 351 347 344 313 325 323 317 340 327 328 311 266 171 212 215 211 251 234 248 235 215 237 253 259 269 291 298 293 307 289 274 288 290 329 270
334 339 341 345 345 349 352 352 352 354 355 355 347 333 329 310 317 337 359 339 319 331 322 139 156 151 189 189 255 199 218 233 230 262 281 277 300 301 302 295 295 238 261 281 279 310 319
329 332 337 340 343 346 348 349 348 349 349 348 348 330 301 277 279 346 346 319 313 293 249 203 144 189 193 212 235 258 185 215 233 247 258 262 269 273 265 275 278 285 249 256 272 244 268
321 326 330 335 335 345 345 345 345 346 348 342 346 328 290 251 250 333 341 329 329 230 348 353 236 203 211 260 237 229 227 202 194 221 241 246 247 263 266 256 255 254 273 278 275 271 260
317 321 324 332 333 340 345 344 341 342 348 341 345 335 313 263 249 357 335 343 249 280 303 334 342 346 329 311 287 278 283 270 256 268 286 284 307 307 332 321 351 300 238 185 258 227 277
314 316 321 324 330 335 345 346 338 341 350 344 342 338 327 41 145 94 312 265 247 268 333 330 340 297 307 330 326 346 300 286 314 305 298 315 295 307 309 312 329 261 287 257 267 308 253
317 316 319 321 326 331 342 354 339 339 352 349 342 337 328 249 166 205 185 253 283 284 300 357 344 320 317 316 333 340 324 332 332 336 336 312 298 311 304 314 309 207 284 352 7 284 246
325 320 317 317 317 323 330 344 340 341 345 348 350 326 158 165 197 207 215 241 283 295 347 327 301 298 295 294 296 291 292 306 316 335 315 312 285 314 339 297 310 322 344 78 141 181 294
306 308 314 318 313 317 321 331 321 337 338 345 348 305 224 192 204 219 226 237 284 334 329 336 351 331 322 327 314 313 308 303 320 332 318 301 272 314 264 275 290 322 73 70 213 292 260
308 310 311 313 315 318 321 318 317 332 332 339 332 278 299 221 237 265 293 309 314 323 346 318 302 310 308 318 322 311 298 301 301 291 284 215 253 330 329 338 2 24 230 195 158 187 204
307 309 306 308 309 319 315 315 316 320 335 336 320 302 321 224 256 341 347 314 318 322 321 319 351 358 333 316 303 294 303 318 328 334 6 350 267 200 249 254 271 284 282 262 174 151 251
297 299 300 299 300 304 307 317 315 328 331 336 280 289 339 318 328 322 303 295 302 307 313 339 338 328 309 315 315 302 310 328 327 326 338 308 258 303 288 288 286 284 289 288 275 223 234
293 295 301 301 297 299 303 314 315 327 337 329 285 339 330 307 310 323 311 313 316 335 344 322 316 328 331 312 287 306 331 337 269 321 341 319 253 254 260 279 306 298 301 287 282 282 285
297 291 293 301 293 294 294 301 310 322 334 319 288 294 326 290 312 299 306 336 323 337 314 336 325 312 295 318 338 312 298 282 264 268 269 275 272 337 279 303 305 298 278 294 286 283 12
305 295 288 292 293 287 293 300 309 318 327 310 304 323 292 275 273 299 314 317 325 329 313 316 318 312 351 323 313 297 268 253 249 248 223 244 266 245 283 331 256 253 337 18 2 51 29
307 305 297 289 288 284 287 297 307 316 312 306 293 305 260 275 302 290 286 312 326 343 337 309 327 27 344 3 319 303 286 101 237 233 216 198 189 287 181 223 281 289 20 347 5 9 26
304 307 306 301 288 287 288 293 303 312 285 294 290 274 270 290 243 299 311 295 346 335 313 311 333 345 358 284 263 285 285 294 141 122 8 4 118 135 256 242 248 43 359 343 53 255 3
298 302 306 303 303 291 286 290 300 308 273 273 284 283 266 261 275 286 307 306 307 307 268 294 342 316 324 276 308 248 269 343 318 164 201 253 46 193 226 240 280 17 344 315 324 317 330
296 289 304 308 304 297 287 286 291 301 266 264 272 293 265 251 279 280 275 279 285 271 251 306 332 16 300 280 290 322 321 348 323 340 299 178 152 209 204 234 257 19 6 4 315 327 331
284 283 293 296 299 302 289 288 289 290 263 249 260 283 284 252 263 282 268 279 268 265 257 272 295 310 350 341 9 326 329 313 331 288 18 34 28 262 202 252 102 7 23 349 343 331 337
Wind_Speed_850mb
55 52 49 52 51 50 52 52 52 50 46 39 34 29 26 24 23 17 14 12 12 11 11 13 16 18 15 10 22 17 7 3 4 2 7 18 31 33 15 17 38 20 24 56 63 61 60
56 57 54 50 51 53 52 53 55 53 49 42 35 27 24 24 20 16 14 12 9 8 8 11 13 15 15 13 9 7 15 9 3 7 19 21 20 34 10 17 13 26 34 30 40 42 42
56 56 59 55 54 54 54 55 55 55 52 44 35 29 23 19 19 16 12 11 11 9 7 8 10 14 20 38 14 7 8 6 10 19 18 18 25 15 32 19 28 49 19 20 24 30 20
55 57 58 60 58 57 56 57 58 60 54 47 37 27 21 17 13 13 11 14 12 8 6 7 9 12 20 6 20 25 14 16 16 15 17 22 21 22 25 32 36 16 15 13 13 17 37
54 56 59 62 63 61 59 58 60 62 56 48 40 31 21 13 7 10 10 9 11 7 6 9 10 12 18 12 22 23 25 25 25 25 15 17 15 19 30 12 12 12 15 22 31 31 31
52 54 57 59 63 65 63 62 62 63 60 50 42 31 22 14 6 10 11 12 16 12 11 14 14 17 19 19 26 24 27 23 19 13 21 27 23 10 8 6 11 17 14 20 20 13 21
50 53 55 58 60 63 65 66 64 63 62 55 44 33 20 11 8 12 13 13 17 3 21 21 20 19 28 6 4 14 17 20 18 20 12 32 7 14 25 24 26 21 27 20 16 26 24
48 51 53 56 58 59 62 64 67 64 60 56 47 35 21 8 8 8 17 16 24 24 33 38 54 49 46 31 12 26 22 21 22 15 20 11 18 29 32 32 21 21 25 16 20 25 27
43 47 52 54 56 59 60 61 63 65 62 55 46 35 20 7 8 10 19 12 26 36 13 41 49 57 51 29 29 35 37 37 19 17 19 18 22 27 27 22 17 14 18 13 19 29 23
42 45 47 53 54 56 59 61 61 63 62 56 46 33 19 10 15 22 33 22 27 30 6 13 14 18 31 30 16 40 37 32 17 24 22 20 21 26 26 21 9 12 20 25 27 13 7
42 44 48 49 55 56 58 61 63 61 62 58 49 32 19 13 19 15 23 30 28 5 7 14 16 19 19 27 12 30 35 32 16 19 16 21 23 29 31 29 24 17 18 20 10 12 16
42 44 44 49 51 56 59 61 63 64 64 61 52 38 23 17 22 16 38 30 18 2 11 13 19 19 13 33 32 31 28 32 29 12 20 25 46 22 30 35 34 33 18 17 7 4 23
43 42 44 45 49 48 57 61 64 63 65 66 57 47 33 29 24 10 32 20 3 7 14 15 3 13 15 13 22 29 29 20 15 13 20 31 32 28 37 43 40 31 15 13 12 9 31
44 44 46 45 53 48 50 59 64 65 65 70 63 49 26 25 18 8 18 5 7 18 24 11 23 27 19 25 26 25 21 16 14 13 17 12 20 16 25 32 3 16 10 8 14 10 20
44 46 45 48 45 53 51 56 63 65 68 74 66 41 12 8 19 5 8 4 9 10 29 26 18 19 16 33 25 22 15 5 10 16 9 7 18 28 32 33 20 11 18 11 6 10 9
43 47 47 48 45 48 48 56 66 70 67 75 72 36 18 4 13 10 3 10 10 22 33 24 18 15 26 25 28 27 17 15 21 23 25 18 28 17 29 31 18 8 6 9 7 7 13
35 46 47 48 48 45 47 45 66 72 77 78 57 25 14 14 16 8 6 12 20 43 31 18 18 19 24 22 24 19 20 31 24 25 16 25 16 17 12 8 14 16 3 8 7 8 10
31 35 40 44 48 47 47 45 59 71 82 75 40 8 14 22 3 11 9 11 29 32 38 16 16 14 15 21 19 18 27 20 35 27 25 15 2 5 15 22 21 9 11 8 2 3 5
36 38 42 39 43 44 46 45 55 63 75 78 54 20 17 23 5 7 14 25 35 23 26 28 16 8 13 14 14 13 26 35 40 25 12 1 4 7 15 11 10 4 5 12 12 11 10
43 39 37 36 39 41 48 45 52 60 61 48 21 8 5 22 30 13 15 12 22 31 35 36 15 19 17 18 17 20 23 17 34 32 21 8 3 8 15 18 13 21 26 19 16 6 15
50 48 50 49 44 42 44 42 50 51 51 38 8 12 26 9 13 24 21 18 28 28 36 24 14 22 26 15 20 24 24 22 31 34 18 5 3 11 23 27 32 38 34 29 31 28 26
52 49 46 44 42 38 40 44 50 48 46 26 10 14 30 36 30 25 19 23 31 31 24 26 13 24 23 18 21 24 16 11 10 10 14 10 8 14 27 24 27 35 33 36 39 30 32
46 46 47 45 42 43 42 41 48 53 48 14 23 38 22 17 19 20 18 26 36 34 20 44 36 27 25 16 25 31 35 33 20 12 9 14 6 8 12 16 28 21 22 14 26 20 10
41 42 44 45 40 39 42 42 47 52 43 22 22 25 8 9 9 16 39 42 31 31 23 42 43 24 14 31 42 47 47 42 30 25 25 12 8 5 11 10 6 13 25 12 15 5 22
41 37 39 43 46 44 47 46 45 44 29 22 20 16 8 7 13 24 28 32 37 35 22 40 33 10 28 21 8 12 8 6 13 17 23 20 9 2 3 5 17 22 9 11 5 6 26
33 33 35 38 42 48 47 45 39 35 20 28 24 25 17 11 10 17 34 33 10 15 17 21 42 22 10 1 5 5 7 13 3 4 12 4 10 7 1 5 8 9 26 40 3 8 34
37 32 30 33 33 36 41 43 35 32 20 26 29 28 20 13 39 17 5 13 15 12 8 36 31 13 4 4 7 7 6 10 5 3 6 3 4 6 6 8 12 22 27 38 6 11 41
39 33 31 31 29 27 30 36 37 33 21 22 34 30 20 14 48 56 41 14 17 14 6 30 20 12 7 4 4 6 5 8 9 13 7 13 10 7 5 9 5 25 7 10 13 32 40
43 37 35 34 29 26 28 29 33 32 22 21 36 32 22 33 31 32 45 69 68 37 41 15 19 26 10 5 7 7 6 6 9 5 13 7 3 5 4 8 12 35 7 28 36 39 47
Wind_Direction_850mb
16 15 14 9 11 9 5 2 359 354 349 343 339 334 326 323 322 322 321 321 314 300 277 269 272 290 313 295 260 250 233 270 220 248 317 286 271 235 224 235 252 258 257 253 259 253 259
17 16 13 11 9 6 7 5 1 358 353 346 338 334 329 324 323 327 331 330 317 300 279 264 262 281 291 261 230 238 289 228 119 303 306 295 296 317 303 296 286 280 277 274 280 277 269
15 15 14 12 9 8 5 3 4 2 356 350 342 336 332 328 326 329 335 338 329 319 299 262 257 279 272 242 220 225 354 278 297 272 289 285 333 345 319 319 309 323 320 308 287 286 284
12 11 12 14 11 9 6 5 4 2 2 357 350 338 333 328 330 333 335 342 331 314 291 263 262 278 262 166 203 231 250 245 255 260 271 294 318 312 300 293 299 304 306 293 275 275 266
8 10 10 10 12 9 8 6 5 4 3 2 357 347 337 332 328 336 322 321 343 335 306 274 268 257 264 296 211 221 227 247 255 236 247 271 282 288 285 296 306 269 251 255 273 242 239
3 5 7 9 9 9 7 6 5 5 4 2 359 354 343 332 320 340 327 300 306 285 299 275 224 282 264 251 217 229 219 239 268 293 285 255 234 224 270 202 242 259 262 262 255 287 332
358 360 2 5 6 8 8 7 5 4 4 1 357 355 349 336 331 343 348 327 341 307 222 221 203 240 293 182 167 217 226 231 230 247 257 274 212 230 238 233 234 255 268 282 319 325 326
352 354 357 360 1 3 5 7 5 3 3 0 356 353 348 346 334 331 338 331 352 310 295 271 262 253 259 270 268 228 219 238 234 231 256 265 242 247 243 252 257 280 294 304 316 309 296
348 350 351 354 357 358 360 2 4 3 0 359 354 353 347 333 317 314 305 318 350 328 292 293 239 234 235 237 244 258 211 221 224 258 263 246 268 291 283 278 272 274 298 272 258 271 276
341 344 347 348 351 354 355 356 359 360 360 356 351 347 344 313 325 323 317 340 327 328 311 266 171 212 215 211 251 234 248 235 215 237 253 259 269 291 298 293 307 289 274 288 290 329 270
334 339 341 345 345 349 352 352 352 354 355 355 347 333 329 310 317 337 359 339 319 331 322 139 156 151 189 189 255 199 218 233 230 262 281 277 300 301 302 295 295 238 261 281 279 310 319
329 332 337 340 343 346 348 349 348 349 349 348 348 330 301 277 279 346 346 319 313 293 249 203 144 189 193 212 235 258 185 215 233 247 258 262 269 273 265 275 278 285 249 256 272 244 268
321 326 330 335 335 345 345 345 345 346 348 342 346 328 290 251 250 333 341 329 329 230 348 353 236 203 211 260 237 229 227 202 194 221 241 246 247 263 266 256 255 254 273 278 275 271 260
317 321 324 332 333 340 345 344 341 342 348 341 345 335 313 263 249 357 335 343 249 280 303 334 342 346 329 311 287 278 283 270 256 268 286 284 307 307 332 321 351 300 238 185 258 227 277
314 316 321 324 330 335 345 346 338 341 350 344 342 338 327 41 145 94 312 265 247 268 333 330 340 297 307 330 326 346 300 286 314 305 298 315 295 307 309 312 329 261 287 257 267 308 253
317 316 319 321 326 331 342 354 339 339 352 349 342 337 328 249 166 205 185 253 283 284 300 357 344 320 317 316 333 340 324 332 332 336 336 312 298 311 304 314 309 207 284 352 7 284 246
325 320 317 317 317 323 330 344 340 341 345 348 350 326 158 165 197 207 215 241 283 295 347 327 301 298 295 294 296 291 292 306 316 335 315 312 285 314 339 297 310 322 344 78 141 181 294
306 308 314 318 313 317 321 331 321 337 338 345 348 305 224 192 204 219 226 237 284 334 329 336 351 331 322 327 314 313 308 303 320 332 318 301 272 314 264 275 290 322 73 70 213 292 260
308 310 311 313 315 318 321 318 317 332 332 339 332 278 299 221 237 265 293 309 314 323 346 318 302 310 308 318 322 311 298 301 301 291 284 215 253 330 329 338 2 24 230 195 158 187 204
307 309 306 308 309 319 315 315 316 320 335 336 320 302 321 224 256 341 347 314 318 322 321 319 351 358 333 316 303 294 303 318 328 334 6 350 267 200 249 254 271 284 282 262 174 151 251
297 299 300 299 300 304 307 317 315 328 331 336 280 289 339 318 328 322 303 295 302 307 313 339 338 328 309 315 315 302 310 328 327 326 338 308 258 303 288 288 286 284 289 288 275 223 234
293 295 301 301 297 299 303 314 315 327 337 329 285 339 330 307 310 323 311 313 316 335 344 322 316 328 331 312 287 306 331 337 269 321 341 319 253 254 260 279 306 298 301 287 282 282 285
297 291 293 301 293 294 294 301 310 322 334 319 288 294 326 290 312 299 306 336 323 337 314 336 325 312 295 318 338 312 298 282 264 268 269 275 272 337 279 303 305 298 278 294 286 283 12
305 295 288 292 293 287 293 300 309 318 327 310 304 323 292 275 273 299 314 317 325 329 313 316 318 312 351 323 313 297 268 253 249 248 223 244 266 245 283 331 256 253 337 18 2 51 29
307 305 297 289 288 284 287 297 307 316 312 306 293 305 260 275 302 290 286 312 326 343 337 309 327 27 344 3 319 303 286 101 237 233 216 198 189 287 181 223 281 289 20 347 5 9 26
304 307 306 301 288 287 288 293 303 312 285 294 290 274 270 290 243 299 311 295 346 335 313 311 333 345 358 284 263 285 285 294 141 122 8 4 118 135 256 242 248 43 359 343 53 255 3
298 302 306 303 303 291 286 290 300 308 273 273 284 283 266 261 275 286 307 306 307 307 268 294 342 316 324 276 308 248 269 343 318 164 201 253 46 193 226 240 280 17 344 315 324 317 330
296 289 304 308 304 297 287 286 291 301 266 264 272 293 265 251 279 280 275 279 285 271 251 306 332 16 300 280 290 322 321 348 323 340 299 178 152 209 204 234 257 19 6 4 315 327 331
284 283 293 296 299 302 289 288 289 290 263 249 260 283 284 252 263 282 268 279 268 265 257 272 295 310 350 341 9 326 329 313 331 288 18 34 28 262 202 252 102 7 23 349 343 331 337